Voltar ao catálogo

THORAD AGENA D DEB

AtivoSSO
NORAD 4970·DEBRIS·🇺🇸 United States

Lançado Apr 8, 1970 de Vandenberg Space Force Base

Loading…

Próximas Passagens (próximas 24 horas)

TLE

AtualizadoSource: Space-Track

Época: Sep 14, 2026, 09:40 UTC

1 04970U 70025GQ  26257.40284140  .00000310  00000-0  47555-3 0  9992
2 04970  99.9616 223.7502 0037932   7.4877 144.0100 13.59993411786680

Acompanhe THORAD AGENA D DEB em tempo real com AllMySat

Download on the App Store